Location: Ao Por, Phuket, Thailand
(8.0591°N, 98.4362°E)
Time: 17:06:36
(UTC+07:00)

N. Korean satellite - Pass Details

Date: 30 September 2021
Orbit: 450 x 495 km, 97.3° (Epoch: 15 October)

Event Time Altitude Azimuth Distance (km) Brightness Sun altitude
Rises 05:11:19 0° 17° (NNE) 2,552 10.4 -16.5°
Reaches altitude 10° 05:13:24 10° 22° (NNE) 1,677 9.5 -16.0°
Maximum altitude 05:16:57 56° 100° (E) 590 7.3 -15.1°
Drops below altitude 10° 05:20:31 10° 180° (S) 1,690 9.3 -14.2°
Sets 05:22:38 0° 184° (S) 2,573 10.2 -13.7°
